Regional Weather Roundup
Issued by NWS

Home | Current Version | Previous Version | Graphics & Text | Print | Product List | Glossary On
Versions: 1 2 3 4 5 6 7 8 9 10 11 12 13 14 15 16 17 18 19 20 21 22 23 24 25 26 27
000
ASUS45 KTFX 260410
RWRMT
MONTANA REGIONAL WEATHER ROUNDUP
NATIONAL WEATHER SERVICE GREAT FALLS MT
1000 PM MDT TUE APR 25 2017

NOTE: "FAIR" INDICATES FEW OR NO CLOUDS BELOW 12000 FEET WITH NO
SIGNIFICANT WEATHER AND/OR OBSTRUCTIONS TO VISIBILITY.

MTZ001>007-043-260500-
WEST OF THE DIVIDE

CITY           SKY/WX    TMP DP  RH WIND       PRES   REMARKS
KALISPELL      MOCLDY    42  41  96 NE6       29.81S
MISSOULA       MOCLDY    44  35  70 N5        29.84R
BUTTE          CLOUDY    41  28  60 NW6       29.82R
MULLAN PASS    CLOUDY    32  31  96 SW6       29.80S WCI  26
ANACONDA         N/A     37  28  70 SW6       29.82R
DEER LODGE       N/A     37  30  75 N5        29.84R
EUREKA           N/A     43  37  81 SE13      29.79S
HAMILTON         N/A     46  34  61 CALM      29.83R
PLAINS           N/A     45  36  70 CALM      29.84S
RONAN            N/A     44  38  79 CALM      29.88S
$$

MTZ008-052>055-260500-
SOUTHWEST MONTANA

CITY           SKY/WX    TMP DP  RH WIND       PRES   REMARKS
BOZEMAN        PTCLDY    42  36  79 S9        29.80R
DILLON         CLOUDY    43  31  62 E5        29.80S
W YELLOWSTONE  MOCLDY    32  28  86 CALM      29.84S
THREE FORKS      N/A     46  36  68 CALM      29.81R
TWIN BRIDGES     N/A     44  30  58 SE3       29.84R
$$

MTZ009-010-012-014-046-048-049-054-260500-
EAST SLOPES AND CENTRAL MONTANA

CITY           SKY/WX    TMP DP  RH WIND       PRES   REMARKS
CUT BANK       CLOUDY    37  33  85 E3        29.84S
GREAT FALLS    CLOUDY    39  37  92 SW5       29.85R
MALMSTROM AFB  LGT RAIN  38  38  99 SW8       29.85S
HELENA         CLEAR     42  35  76 N6        29.83R
AUGUSTA        CLOUDY    37  37  99 E5        29.84R
BOWMANS CRNR   CLOUDY    36  34  94 CALM      29.83R
CHOTEAU          N/A     39  37  93 NE6       29.86S
FAIRFIELD      MOCLDY    37  34  89 CALM      29.84S
POWER          MOCLDY    37  37  98 CALM      29.84R
RAYNESFORD     LGT RAIN  38  36  94 W8        29.85R WCI  32
ULM            LGT RAIN  39  38  95 SW7       29.86R
$$

MTZ011-013-016-021-045-047-050-051-260500-
NORTH CENTRAL MONTANA

CITY           SKY/WX    TMP DP  RH WIND       PRES   REMARKS
HAVRE          CLOUDY    41  34  76 E9        29.85R
LEWISTOWN      CLOUDY    37  33  85 E10       29.82S WCI  30
CHINOOK          N/A     39  28  65 E14G23    29.87F WCI  31
DENTON         RAIN      37  35  94 MISG      29.82R
FORT BENTON      N/A     39  37  93 MISG      29.87S
GEYSER         FLURRIES  35  34  95 N7        29.85R WCI  29
GRASS RANGE    CLOUDY    35  33  91 E12       29.81S WCI  27
JUDITH GAP     CLOUDY    35  33  90 S18       29.82S WCI  25
STANFORD       LGT RAIN  35  35  96 W7        29.84R WCI  30
WINIFRED       CLOUDY    35  33  92 E15       29.83R WCI  25
$$

MTZ017>020-022>027-061-062-260500-
NORTHEAST MONTANA

CITY           SKY/WX    TMP DP  RH WIND       PRES   REMARKS
GLASGOW        CLOUDY    39  22  50 E15       29.94F WCI  31
JORDAN           N/A     39  27  62 SE7       29.92S
SIDNEY         CLOUDY    33  26  75 NW3       29.99R
WOLF POINT     CLOUDY    40  25  55 E8        29.98S
PLENTYWOOD       N/A     30  23  74 NE5       30.00R
POPLAR           N/A     37  25  60 E13       29.99S WCI  29
SCOBEY           N/A     35  21  57 CALM      29.96R
$$

MTZ028>42-056>058-260500-
SOUTHCENTRAL AND SOUTHEAST MONTANA

CITY           SKY/WX    TMP DP  RH WIND       PRES   REMARKS
BAKER          CLOUDY    31  24  75 E10       29.95R WCI  22
BILLINGS       CLOUDY    36  29  75 SE6       29.88S WCI  31
LIVINGSTON     CLEAR     37  35  92 E6        29.82R
MILES CITY     CLOUDY    37  25  61 E7        29.95R WCI  32
BIG TIMBER     CLOUDY    36  34  93 SE10      29.85F WCI  28
EKALAKA          N/A     29  24  81 NE2       29.90R
LAUREL           N/A     36  24  62 NE6       29.87S WCI  31
ROUNDUP          N/A     37  28  70 E5        29.80S
$$

REGIONAL REPORTS...DAKOTAS

CITY           SKY/WX    TMP DP  RH WIND       PRES   REMARKS
WILLISTON      CLOUDY    37  26  64 N7        29.99R WCI  32
MINOT          CLOUDY    35  26  69 N7        29.97R WCI  29
DICKINSON      CLOUDY    31  24  75 NW7       29.92R WCI  24
BEACH            N/A     30  23  74 CALM      29.98S
TIOGA            N/A     30  28  93 E5        29.98S
WATFORD CITY   MOCLDY    34  27  75 NE6       29.97R WCI  29
BISMARCK       CLOUDY    36  28  73 N12       29.92S WCI  28
GRAND FORKS    CLOUDY    34  27  75 NE22      29.90S WCI  22
FARGO          CLOUDY    34  28  79 N17G26    29.82S WCI  23
BUFFALO SD       N/A     30  25  81 N8        29.86S WCI  22
RAPID CITY     FLURRIES  28  25  88 N16       29.92R WCI  16
$$

REGIONAL REPORTS...WYOMING/IDAHO/WASHINGTON

CITY           SKY/WX    TMP DP  RH WIND       PRES   REMARKS
GILLETTE       CLOUDY    27  27 100 N6        29.90R WCI  20
SHERIDAN       CLOUDY    33  28  81 CALM      29.90R
CODY           CLOUDY    36  32  85 S6        29.86F WCI  31
YELLOWSTONE LA   N/A     28  27  96 CALM      29.88R
IDAHO FALLS    CLOUDY    44  35  70 S14       29.86R
SALMON         CLOUDY    45  36  70 NE10      29.82R
BOISE          MOCLDY    52  34  50 CALM      29.88R
SPOKANE        CLOUDY    48  34  58 S5        29.80S
$$

REGIONAL REPORTS...ALBERTA

CITY           SKY/WX    TMP DP  RH WIND       PRES   REMARKS
EDMONTON       CLOUDY    34  27  75 SE12G17   29.92S WCI  25
CALGARY        MOCLDY    28  25  86 NE5       29.86F
LETHBRIDGE     FLURRIES  36  32  87 NW6       29.86S WCI  31
MEDICINE HAT   CLOUDY    37  37 100 NE2       29.87R
MILK RIVER       N/A     37  34  87 NW5         N/A
$$

REGIONAL REPORTS...SASKATCHEWAN

CITY           SKY/WX    TMP DP  RH WIND       PRES   REMARKS
SWIFT CURRENT  CLOUDY    32  27  80 E9        29.93S WCI  24
REGINA         MOCLDY    34  23  64 NE9       30.03S WCI  26
SASKATOON      CLOUDY    34  21  60 E7        30.06S WCI  28
CYPRESS HILLS    N/A     28  27  93 SE9         N/A  WCI  20
VAL MARIE        N/A     36  27  69 SE12        N/A  WCI  27
ROCKGLEN         N/A     32  25  74 E5          N/A
ASSINIBOIA       N/A     34  32  93 SE9         N/A  WCI  26
$$




USA.gov is the U.S. government's official web portal to all federal, state and local government web resources and services.